Regional Weather Roundup
Issued by NWS

Home | Current Version | Previous Version | Graphics & Text | Print | Product List | Glossary On
Versions: 1 2 3 4 5 6 7 8 9 10 11 12 13 14 15 16 17 18 19 20 21 22 23 24 25 26 27 28 29 30 31 32 33 34 35 36 37 38 39 40 41 42 43 44 45 46 47 48 49 50
000
ASUS44 KMEG 181000
RWRTN
TENNESSEE HOURLY STATE WEATHER ROUNDUP
NATIONAL WEATHER SERVICE MEMPHIS TN
400 AM CST THU DEC 18 2014

TNZ002-004-019-021-049-052-054-088>092-181100-
WEST TENNESSEE

CITY           SKY/WX    TMP DP  RH WIND       PRES   REMARKS
MEMPHIS INTL   LGT RAIN  38  34  85 E9        30.22F FOG     WCI  31
NWS MEMPHIS      N/A     36 N/A N/A MISG        N/A
JACKSON        CLOUDY    36  33  89 CALM      30.25S
DYERSBURG      CLOUDY    36  25  64 CALM      30.27S
UNION CITY     MOCLDY    32  32 100 E5        30.23F WCI  27
PARIS          CLOUDY    30  28  93 E3        30.24F
LEXINGTON      MOCLDY    34  34 100 E3        30.22F
SAVANNAH       CLOUDY    37  32  81 E3        30.24F
$$

TNZ008-025-027-028-033-062-065-066-181100-
NORTH MIDDLE TENNESSEE

CITY           SKY/WX    TMP DP  RH WIND       PRES   REMARKS
NASHVILLE      LGT RAIN  33  30  88 NE6       30.26F WCI  28
CLARKSVILLE    FRZ RAIN  32  29  88 E6        30.25S WCI  26
COOKEVILLE     CLOUDY    32  30  93 CALM      30.22S
CROSSVILLE     CLOUDY    33  27  78 N3        30.20R
$$

TNZ061-075-076-078-094-096-097-181100-
SOUTH MIDDLE TENNESSEE

CITY           SKY/WX    TMP DP  RH WIND       PRES   REMARKS
FAYETTEVILLE   CLOUDY    34  28  80 MISG      30.23R
TULLAHOMA      CLOUDY    34  28  80 N5        30.23S WCI  30
WINCHESTER     CLOUDY    34  30  86 NE5       30.21F WCI  30
SHELBYVILLE    CLOUDY    34  34 100 CALM      30.26R
$$

TNZ017-018-042-046-047-181100-
NORTHEAST TENNESSEE

CITY           SKY/WX    TMP DP  RH WIND       PRES   REMARKS
TRI CITIES     FOG       25  24  96 CALM      30.18F VSB 1/2
ELIZABETHTON   PTSUNNY   25  23  93 CALM      30.18F
$$

TNZ012-013-036-069-073-074-181100-
CENTRAL EAST TENNESSEE

CITY           SKY/WX    TMP DP  RH WIND       PRES   REMARKS
KNOXVILLE      CLOUDY    32  28  85 NE5       30.20F WCI  27
OAK RIDGE      CLOUDY    34  30  85 CALM      30.22F
GATLINBURG     SUNNY     27  27 100 CALM      30.19F
$$

TNZ083-085-099-181100-
SOUTHEAST TENNESSEE

CITY           SKY/WX    TMP DP  RH WIND       PRES   REMARKS
CHATTANOOGA    CLOUDY    37  31  78 N6        30.22R WCI  32
$$

SKY/WX REPORTED AS FAIR MEANS FEW OR NO CLOUDS BELOW
12 THOUSAND FEET.




USA.gov is the U.S. government's official web portal to all federal, state and local government web resources and services.